Location: A O Calhoun Middle School
(33.2198°N, 97.1397°W)
Time: 15:19:05
(UTC+00:00)

NOAA 12 - Pass Details

Date: 08 December 2021
Orbit: 795 x 815 km, 98.5° (Epoch: 25 January)

Event Time Altitude Azimuth Distance (km) Brightness Sun altitude
Rises 23:43:53 0° 168° (SSE) 3,325 7.5 -5.1°
Reaches altitude 10° 23:46:13 10° 169° (S) 2,396 6.7 -5.5°
Maximum altitude 23:51:32 82° 258° (WSW) 825 4.3 -6.6°
Drops below altitude 10° 23:56:52 10° 345° (NNW) 2,402 6.5 -7.6°
Sets 23:59:12 0° 347° (NNW) 3,335 7.2 -8.0°
